SCP
0 0 0 0 0 0 0 0 0 0 0 0 0 0 0 0 0 0 0 0 0 0 0 0 0 0 0 0 0 0 0 0 0 0 0 0 0 0 0 1 0 1 1 2 0 0 0 0 0 0 0 0 0 0
0 0 0 0 0 0 0 0 0 0 0 0 0 0 0 0 0 0 0 0 0 0 0 0 0 0 0 0 0 0 0 0 0 0 0 0 0 0 1 0 1 0 1 1 1 0 0 0 0 0 0 0 0 0
0 0 0 0 0 0 -0 0 -0 0 0 0 0 0 0 0 0 -0 0 0 0 -0 0 0 0 0 0 0 0 0 0 0 0 0 0 0 0 0 1 1 0 1 1 0 1 0 0 0 0 0 0 0 0 0
-0 -0 -0 -0 -0 -0 0 0 0 -0 0 0 0 0 0 0 -0 -0 -0 0 0 -0 0 0 0 0 0 0 0 0 0 0 0 0 0 0 0 0 0 0 1 0 0 0 0 0 0 0 0 0 0 0 0 0
-0 0 0 -0 0 0 0 0 0 0 0 -0 -0 -0 -0 -0 -0 -0 -0 0 -0 0 0 0 0 0 0 0 0 0 0 0 0 0 0 0 0 0 0 0 0 0 0 0 0 0 0 0 0 0 0 0 0 0
-0 -0 -0 0 0 0 0 0 0 0 0 0 -0 -0 -0 -0 -0 -0 0 -0 0 0 0 0 0 0 0 0 0 -0 0 0 0 -0 0 0 0 0 0 0 0 0 0 0 0 0 0 0 0 0 0 0 0 0
-0 0 -0 0 0 -0 -0 -0 -0 -0 -0 0 0 -0 -0 -0 -0 0 0 0 -0 -0 0 0 0 0 0 0 0 0 0 0 0 0 0 0 0 0 0 0 0 0 0 0 0 0 0 0 0 0 0 0 0 0
-0 -0 0 0 -0 -0 0 -0 -0 -0 0 0 0 -0 -0 0 0 0 0 0 -0 0 0 0 0 0 0 0 0 0 0 0 0 0 0 0 0 0 0 0 0 0 0 0 0 0 0 0 0 0 0 0 0 0
0 0 0 0 0 0 0 -0 0 0 0 0 0 0 0 0 0 0 0 0 0 0 0 0 0 0 0 0 0 0 0 0 0 0 0 0 0 0 0 0 0 0 0 0 0 0 0 0 0 0 0 0 0 0
0 0 0 0 0 0 0 0 0 0 0 0 0 0 0 0 0 0 0 0 0 0 0 0 0 0 0 0 0 0 0 0 0 0 0 0 0 0 0 0 0 0 0 0 0 0 0 0 0 0 0 0 0 0
0 0 0 0 0 0 0 0 0 0 0 0 0 0 0 0 0 0 0 0 0 0 0 0 0 0 0 0 0 0 0 0 0 0 0 0 0 0 0 0 0 0 0 0 0 0 0 0 0 0 0 0 0 0
0 0 0 0 0 0 0 0 0 0 0 0 0 0 0 0 0 0 0 0 0 0 0 0 0 0 0 0 0 0 0 0 0 0 0 0 0 0 0 0 -0 0 0 0 0 0 0 0 -0 -0 0 0 0 0
0 0 0 0 0 0 0 0 0 0 0 0 0 0 0 0 0 0 0 0 0 0 0 0 0 0 0 0 0 0 0 0 0 0 0 0 0 0 0 0 0 0 0 0 0 0 0 0 0 0 0 0 0 0
0 0 0 0 0 0 0 0 0 0 0 0 0 0 0 0 0 0 0 0 0 0 0 0 0 0 0 0 0 0 0 0 0 0 0 0 0 0 0 0 0 0 0 0 0 0 0 0 0 0 0 0 0 0
0 0 0 0 0 0 0 0 0 0 0 0 0 0 0 0 0 0 0 0 0 0 0 0 0 0 0 0 0 0 0 0 0 0 0 0 0 0 0 0 0 0 0 0 0 0 0 0 0 0 0 0 0 0
0 0 0 0 0 0 0 0 0 0 0 0 0 0 0 0 0 0 0 0 0 0 0 0 0 0 0 0 0 0 0 0 0 0 0 0 0 0 0 0 0 0 0 0 0 0 0 0 0 0 0 0 0 0
0 0 0 0 0 0 0 0 0 0 0 0 0 0 0 0 0 0 0 0 0 0 0 0 0 0 0 0 0 0 -0 0 0 0 0 0 0 0 0 0 0 0 0 0 0 0 0 0 0 0 0 0 0 0
0 0 0 0 0 0 0 0 0 0 0 0 0 0 0 0 0 0 0 0 0 0 0 0 0 0 0 0 0 0 0 0 0 0 0 0 0 0 0 0 0 0 0 0 0 -0 0 0 0 0 0 0 0 0
0 0 0 -0 0 0 0 0 0 0 0 0 0 0 0 0 0 0 0 0 0 0 0 0 0 0 0 0 0 0 0 0 0 0 0 0 0 0 0 0 0 0 0 -0 -0 0 0 0 0 0 0 0 0 0
0 0 -0 0 0 0 0 0 0 0 0 0 0 0 0 0 0 0 0 0 0 0 0 0 0 0 0 0 0 0 0 0 -0 0 0 0 0 0 0 0 0 0 0 0 0 0 0 0 0 0 0 0 0 0
0 0 0 0 0 0 0 0 0 0 0 0 0 0 0 0 0 0 0 0 0 0 0 0 0 0 0 0 0 0 0 0 0 0 0 0 0 0 0 0 0 0 0 0 0 0 0 0 0 0 0 0 0 0
0 0 0 0 0 0 0 0 0 0 0 0 0 0 0 0 0 0 0 0 0 0 0 0 0 0 0 0 0 0 0 0 0 0 0 0 0 0 0 0 0 0 0 0 0 0 0 0 0 0 0 0 0 0
0 0 0 0 0 0 0 0 0 0 0 0 0 0 0 0 0 0 0 0 0 0 0 0 0 0 0 0 0 0 0 -0 -0 0 -0 -0 -0 -0 0 0 0 0 0 0 0 0 0 0 0 0 0 0 0 0
0 0 0 0 0 0 0 0 0 0 0 0 0 0 0 0 0 0 0 0 0 0 0 0 0 0 0 -0 -0 -0 -0 -0 -0 -0 0 0 0 0 0 0 0 0 0 0 0 0 0 0 0 0 0 0 0 0
0 0 0 0 0 0 0 0 0 0 0 0 0 0 0 0 0 0 0 0 0 0 0 0 0 -0 -0 -0 -0 -0 -0 -0 -0 0 0 0 0 0 0 0 0 0 0 0 0 0 0 0 0 0 0 0 0 0
0 0 0 0 0 0 0 0 0 0 0 0 0 0 0 0 0 0 0 0 0 0 0 -0 -0 0 0 -0 -0 -0 -0 0 0 0 0 0 0 0 0 0 0 0 0 0 0 0 0 0 0 0 0 0 0 0
0 0 0 0 0 0 0 0 0 0 0 0 0 0 0 0 0 0 0 0 0 0 0 0 0 0 0 0 -0 -0 -0 0 0 0 0 0 0 0 0 0 0 0 0 0 0 0 0 0 0 0 0 0 0 0
0 0 0 0 0 0 0 0 0 0 0 0 0 0 0 0 0 0 0 0 -0 0 0 0 0 0 0 0 -0 -0 -0 -0 0 0 0 0 0 0 0 0 0 0 0 0 0 0 0 0 0 0 0 0 0 0
0 0 0 0 0 0 0 0 0 0 0 0 0 0 0 0 0 0 0 0 0 0 0 0 0 0 0 -0 -0 -0 0 0 0 0 0 0 0 0 0 0 0 0 0 0 0 0 0 0 0 0 0 0 0 0
0 0 0 0 0 0 0 0 0 0 0 0 0 0 0 0 0 0 0 0 0 0 0 0 0 0 0 0 -0 0 0 0 0 0 0 0 0 0 0 0 0 0 0 0 0 0 0 0 0 0 0 0 0 0
0 0 0 0 0 0 0 0 0 0 0 0 0 0 0 0 0 0 0 0 0 0 0 0 0 0 0 0 0 0 0 0 0 0 0 0 0 0 0 0 0 0 0 0 0 0 0 0 0 0 0 0 0 0
0 0 0 0 0 0 0 0 0 0 0 0 0 0 0 0 -0 0 0 0 0 0 0 0 0 0 0 0 0 0 0 0 0 0 0 0 0 0 0 0 0 0 0 0 0 0 0 0 0 0 0 0 0 0
0 0 0 0 0 0 0 0 0 0 0 0 0 0 0 0 0 0 0 0 0 0 0 0 0 0 0 0 0 0 0 0 0 0 0 0 0 0 0 0 0 0 0 0 0 0 0 0 0 0 0 0 0 0
Wind_Speed_500mb
55 53 53 50 46 47 46 42 39 36 33 29 29 28 27 32 28 30 34 29 34 20 54 53 53 50 36 24 10 22 21 6 6 3 4 5 5 6 10 15 23 17 16 7 4 11 11 51 22 11 14 8 18 34
52 51 51 49 47 46 42 37 34 31 32 27 28 30 33 29 27 26 31 28 30 37 37 40 48 53 52 49 24 10 15 20 10 6 4 7 5 4 5 15 3 14 11 14 10 8 18 24 13 17 8 31 36 47
56 54 51 48 44 40 34 29 24 29 29 26 28 23 24 25 18 21 25 25 29 28 55 52 55 37 36 51 56 27 21 14 5 11 5 5 8 3 2 5 9 6 6 12 11 10 11 19 16 18 26 37 35 38
57 53 51 49 37 34 26 24 28 23 19 22 21 20 17 10 14 23 26 22 24 11 11 15 13 36 21 19 37 59 26 11 15 14 6 4 6 2 2 3 5 6 2 20 9 25 14 17 14 15 24 33 46 48
55 51 45 35 26 21 16 18 16 13 18 18 13 12 12 17 13 18 22 31 28 15 10 29 60 7 7 29 39 48 50 44 15 10 3 4 8 7 2 1 8 18 7 9 13 20 4 10 20 25 35 31 33 51
46 41 34 19 14 11 11 15 17 17 16 10 9 16 12 13 15 15 10 8 20 31 9 9 19 12 12 4 22 31 35 28 13 11 5 9 13 8 5 6 17 21 7 18 3 36 52 38 35 27 46 45 48 54
36 33 27 21 10 11 16 22 15 14 13 6 7 13 14 17 18 11 8 14 11 23 8 10 10 10 7 9 17 19 28 12 14 7 11 6 8 10 6 8 35 27 21 28 35 56 47 37 25 30 32 40 47 41
34 28 20 21 14 20 18 15 15 14 8 7 10 15 19 18 18 8 7 15 25 13 7 6 9 11 2 7 9 18 18 16 8 6 3 5 10 10 9 21 26 17 36 52 56 59 49 40 36 39 29 30 37 34
34 29 22 21 20 20 21 21 20 12 9 11 12 16 8 5 4 13 12 10 34 10 9 5 7 6 12 3 6 11 13 6 4 1 6 8 7 9 10 19 27 27 24 33 46 46 32 32 31 31 28 30 30 29
39 35 28 30 29 28 24 21 16 14 11 12 10 6 4 8 12 9 3 5 11 8 9 6 8 8 9 5 4 7 4 8 7 4 10 6 6 18 24 25 31 22 27 34 31 26 19 21 27 22 28 28 23 18
36 31 24 24 25 21 22 22 20 20 14 15 12 6 9 12 6 3 3 5 5 4 8 12 12 9 4 4 3 4 4 3 5 6 3 6 7 3 19 25 22 24 26 24 23 24 21 19 19 20 22 21 21 22
37 34 29 22 24 22 21 29 28 24 21 19 16 14 10 7 4 4 4 3 5 3 7 7 9 11 10 6 4 5 4 3 8 2 6 6 6 16 19 15 18 19 21 24 24 25 27 27 21 23 26 27 27 28
37 34 28 24 21 25 27 29 35 33 19 11 9 8 8 8 6 8 12 5 6 10 14 20 14 26 11 11 1 5 8 7 1 8 6 5 14 16 19 16 24 30 26 24 27 26 31 33 32 31 29 30 29 27
37 34 29 27 29 30 34 38 36 25 11 8 10 7 7 6 8 4 9 10 11 8 21 27 11 6 4 1 3 8 8 1 7 5 5 5 15 16 22 22 23 24 24 29 34 37 38 36 32 30 27 24 25 25
26 27 31 37 43 43 37 30 25 20 10 14 10 9 8 15 14 19 19 12 11 25 10 4 4 2 6 7 9 6 8 9 9 4 3 15 14 12 17 22 23 25 28 31 33 32 32 34 32 28 27 24 21 22
24 28 45 49 45 36 32 23 20 17 9 10 12 9 25 15 26 36 43 41 41 29 11 6 6 6 10 6 8 10 5 7 4 5 9 7 9 13 19 23 26 22 22 22 19 19 21 23 20 21 23 26 23 22
33 39 51 53 43 26 32 20 13 10 10 9 9 14 12 8 13 19 21 30 34 15 7 6 9 6 5 7 7 8 7 6 11 11 14 11 9 12 16 13 15 19 19 18 20 16 16 20 27 6 10 15 17 20
36 40 47 52 47 20 22 19 9 10 11 9 9 28 24 14 20 21 35 43 25 14 9 7 4 11 8 7 6 6 9 6 10 11 11 15 18 17 13 13 15 18 14 13 12 10 15 15 20 20 6 11 14 19
40 41 46 48 42 19 12 12 10 7 6 12 22 33 19 24 33 38 37 37 20 19 7 8 11 9 7 9 13 15 17 18 15 12 11 14 17 14 15 16 17 16 12 10 9 6 15 10 3 6 13 10 8 14
33 32 39 34 28 11 8 9 11 7 11 15 22 30 14 19 31 39 40 40 30 12 17 10 8 7 8 10 12 11 13 16 19 11 9 11 14 16 14 11 11 12 10 9 5 11 18 10 5 4 7 7 12 17
29 32 30 24 14 17 9 12 8 10 13 11 26 23 12 22 21 32 31 34 21 12 10 11 10 14 16 15 15 13 12 14 13 11 10 9 10 2 11 11 7 8 5 10 14 16 15 11 9 10 11 15 19 18
24 29 20 17 12 9 9 20 10 13 10 14 16 18 12 14 18 21 28 18 11 10 11 15 18 18 18 18 15 13 15 16 12 13 13 14 12 15 20 14 9 11 15 19 20 21 19 18 16 14 14 14 15 17
20 18 11 13 8 11 6 17 10 14 10 22 13 8 8 12 17 22 8 12 10 21 22 24 25 25 24 23 18 14 13 12 13 12 14 15 7 8 13 1 7 10 12 17 20 23 26 28 29 28 28 27 27 26
12 10 9 10 13 6 9 8 7 8 8 8 7 8 9 12 22 9 4 6 12 20 29 26 25 24 31 40 46 45 39 30 27 25 22 14 8 2 4 4 7 11 17 23 29 33 34 29 24 17 17 18 20 19
5 9 6 8 6 5 5 9 7 6 4 4 4 2 6 10 7 8 10 20 27 25 21 22 29 40 38 34 39 44 43 39 35 29 26 21 10 4 3 5 9 16 27 32 33 34 26 20 18 19 22 22 21 16
7 7 5 3 2 1 2 4 5 5 4 4 3 2 2 3 2 6 4 14 20 29 27 33 37 41 47 46 41 44 45 39 32 22 24 20 12 10 9 13 16 19 32 34 34 26 22 23 24 26 25 23 23 21
6 6 5 7 5 6 5 4 4 5 4 3 1 1 1 4 9 12 23 31 18 24 37 38 41 40 36 37 41 43 42 35 27 25 21 16 15 18 20 21 24 31 34 31 30 23 23 27 28 28 27 25 25 26
3 3 5 6 4 5 7 6 4 4 2 3 2 5 6 10 8 16 24 39 42 37 39 36 30 36 40 44 47 47 45 37 25 21 19 18 25 31 28 31 35 36 35 34 29 27 28 24 25 26 26 24 23 21
5 6 5 8 5 5 6 4 5 5 3 3 5 7 8 10 17 25 31 33 32 31 36 36 38 41 46 43 48 46 41 40 36 32 30 30 32 31 34 35 38 40 38 32 30 30 30 28 26 23 21 20 20 21
6 10 5 5 5 7 10 9 13 15 15 20 30 43 36 31 39 37 40 38 31 30 33 36 41 46 45 46 42 37 33 38 38 36 35 37 37 38 39 39 38 35 30 25 17 14 18 16 18 20 24 25 26 28
13 8 5 3 3 5 15 32 40 41 40 49 40 31 22 11 20 41 41 39 36 25 24 29 38 46 51 54 50 40 35 38 38 33 29 27 29 31 33 33 32 27 24 22 20 20 22 24 24 26 27 29 29 30
14 10 10 5 4 11 20 23 14 24 21 20 6 5 6 5 6 4 12 26 30 28 33 38 41 42 45 42 36 33 33 33 34 34 34 35 33 33 31 29 27 25 25 24 24 25 27 27 27 27 27 27 28 28
11 14 9 7 5 4 6 7 10 10 9 5 5 3 2 1 6 10 16 22 25 23 28 34 35 35 42 37 34 31 28 29 33 35 37 39 40 40 35 33 30 28 28 27 26 26 26 27 27 28 29 29 28 28
Wind_Direction_500mb
314 312 311 310 306 306 304 301 298 304 297 297 292 285 279 273 263 249 253 256 243 264 272 265 263 268 273 277 288 322 324 49 306 262 260 255 247 169 177 164 170 161 160 143 114 294 245 355 337 293 350 19 128 135
322 319 314 309 307 304 303 302 298 294 301 297 307 283 273 268 253 244 255 262 258 250 259 274 269 265 253 247 262 257 301 302 286 325 293 293 294 253 176 182 242 176 169 144 131 264 326 349 310 311 94 84 88 96
320 318 320 314 309 304 304 298 308 304 301 290 299 302 276 272 247 255 262 255 259 274 288 268 265 288 266 250 247 240 269 214 206 341 275 277 277 317 178 114 144 73 142 111 125 165 8 346 34 48 78 78 80 86
327 318 316 314 306 311 303 297 303 306 290 297 295 293 297 285 281 266 261 265 266 269 274 292 287 297 280 240 222 219 209 119 338 322 261 263 272 322 271 34 99 8 87 144 112 140 198 239 120 95 80 79 82 79
329 328 324 317 316 311 308 328 330 309 310 310 285 292 278 281 277 271 271 269 263 230 295 292 307 343 358 218 222 218 226 240 303 343 326 247 278 282 134 182 51 346 355 156 163 166 129 130 129 116 90 77 78 85
336 339 339 341 346 334 333 332 318 320 330 312 300 286 278 307 308 306 291 270 235 219 269 294 312 312 353 200 194 195 196 203 203 192 251 252 252 281 44 64 13 351 278 232 180 150 116 109 94 98 102 99 88 84
349 351 357 357 0 343 339 331 323 326 324 306 304 326 331 301 294 286 287 351 158 178 255 291 291 287 342 123 158 163 180 204 214 216 221 273 16 48 50 36 335 360 71 90 107 112 89 107 96 94 87 84 87 75
1 359 3 2 7 354 348 355 340 335 335 324 311 299 306 300 298 332 291 238 196 264 269 282 279 295 171 181 165 171 155 195 217 301 262 21 33 49 53 358 354 61 84 81 92 94 93 97 84 77 78 70 68 64
17 26 30 27 21 23 17 2 345 348 340 329 316 317 336 18 20 347 23 172 203 240 304 279 294 325 337 174 160 165 176 108 223 258 54 63 28 49 1 350 20 39 75 81 84 84 75 60 51 58 46 54 52 45
33 35 42 39 35 25 17 18 21 354 356 353 3 3 8 339 334 336 352 171 184 225 237 257 274 279 318 331 143 146 181 132 151 72 114 90 64 35 34 47 54 66 76 86 81 87 84 76 67 62 49 44 43 37
26 21 21 26 16 22 34 28 11 360 18 10 353 333 316 321 308 276 257 217 190 246 229 244 247 284 292 300 28 21 133 156 110 118 127 91 95 5 49 58 62 84 105 102 103 98 95 83 72 65 62 59 54 52
26 23 22 25 25 29 20 13 14 10 351 335 320 317 331 339 303 282 262 244 235 309 264 263 305 254 294 325 321 16 48 49 74 43 79 84 82 68 79 52 73 98 88 86 84 78 74 67 65 64 57 50 47 42
19 14 16 29 30 26 21 10 0 349 347 351 343 329 348 348 20 9 355 39 12 354 327 332 333 342 327 7 345 16 58 53 212 38 56 77 77 73 100 94 71 80 84 90 86 82 74 64 60 57 53 49 45 46
23 32 38 34 21 5 355 353 357 7 16 18 344 14 10 24 13 321 320 310 292 230 283 290 242 225 277 25 311 33 17 303 70 58 76 81 71 71 78 77 76 70 69 67 63 58 54 50 47 46 44 41 45 49
24 25 18 6 357 349 350 357 8 17 40 23 17 20 8 318 325 304 317 298 321 325 333 228 238 251 8 47 20 4 40 59 39 46 40 45 53 61 70 70 70 65 61 56 52 49 48 45 40 40 37 32 40 42
14 6 5 5 5 7 9 12 15 35 41 34 31 350 346 7 8 11 0 358 354 347 5 35 45 36 23 16 47 27 59 19 67 47 60 46 70 69 65 60 51 46 40 36 32 34 35 26 24 39 41 43 48 38
3 1 358 3 4 5 16 18 7 29 36 28 356 351 339 280 297 328 338 337 355 348 16 11 51 12 292 51 45 24 78 345 355 45 62 78 80 78 64 59 39 34 28 33 35 39 25 26 24 20 38 29 24 20
357 355 355 356 359 4 13 22 25 29 27 18 348 350 350 356 347 354 356 3 11 13 14 51 59 32 40 38 50 52 50 11 26 50 51 69 77 77 69 51 41 34 37 28 31 38 26 18 20 21 349 337 345 353
345 344 350 351 356 2 13 25 24 28 357 346 345 353 351 2 3 3 4 18 33 39 51 39 56 33 47 41 45 42 33 28 13 19 64 71 56 58 51 34 17 358 350 353 356 5 1 341 343 8 349 357 15 354
332 336 340 346 1 9 23 26 18 357 0 335 348 344 343 350 359 9 19 26 39 48 40 45 48 53 56 41 31 16 9 5 13 37 78 58 44 37 3 346 322 313 325 329 326 333 334 309 212 268 312 300 303 319
335 343 345 356 16 31 42 10 16 356 335 337 346 351 334 355 7 9 8 27 45 36 53 44 27 6 343 335 335 347 1 4 16 30 25 36 52 90 333 354 329 319 2 36 28 17 7 355 316 286 275 291 294 289
342 349 353 14 25 29 40 9 338 337 343 327 349 0 13 2 353 1 355 27 39 15 15 4 13 20 36 41 44 51 52 48 26 10 353 352 2 20 22 13 37 60 55 48 41 33 24 14 3 350 336 323 321 313
344 358 10 13 8 29 11 7 9 8 4 353 4 26 2 348 344 357 38 12 11 22 28 35 33 23 25 35 30 12 353 328 324 324 305 304 290 228 260 231 75 56 39 24 12 359 347 337 330 323 320 319 316 315
13 20 25 32 30 10 356 356 10 0 18 20 13 358 347 337 352 29 84 315 6 18 10 13 18 51 61 63 54 46 42 41 35 26 20 6 331 222 145 95 29 14 8 357 348 342 335 329 328 333 336 334 330 329
26 20 29 7 18 19 10 328 13 18 35 8 55 6 328 346 18 11 356 356 11 30 40 52 75 71 59 49 41 35 27 20 13 7 8 18 26 64 28 356 359 357 352 350 349 346 345 347 344 338 333 331 333 331
48 8 43 346 341 349 46 344 337 337 327 344 70 161 300 289 6 62 80 13 25 37 63 76 67 62 52 43 35 25 16 10 4 359 354 353 346 355 1 353 348 343 344 344 344 343 342 340 336 334 328 322 318 316
40 19 332 317 291 301 279 243 265 290 299 341 44 113 333 33 51 28 14 8 31 70 84 73 58 48 40 31 25 21 16 11 5 1 5 11 5 349 341 334 331 328 330 333 335 327 329 330 330 329 326 319 311 305
303 280 289 314 276 243 287 287 240 238 241 177 144 34 46 30 21 5 33 77 92 87 73 62 51 38 27 21 16 12 13 16 12 6 359 356 351 342 334 324 321 321 321 322 315 313 319 324 328 331 332 330 327 324
296 304 268 277 238 236 248 273 325 352 49 98 53 51 71 52 74 91 88 77 70 57 46 34 25 18 20 22 15 9 2 1 5 7 2 350 344 341 334 326 323 322 320 316 307 304 303 305 313 320 327 334 333 330
324 327 281 304 316 15 18 30 37 86 85 103 107 102 94 75 56 61 60 52 42 32 18 14 11 11 12 9 8 7 2 1 2 0 350 343 337 336 338 339 339 336 330 324 330 331 320 327 333 336 336 333 329 328
329 331 290 287 298 63 56 101 95 85 83 90 95 82 58 44 27 38 31 15 9 4 8 2 1 4 2 359 358 356 356 359 2 3 3 359 354 351 348 344 340 340 338 337 342 343 339 335 332 331 329 329 328 330
344 358 344 323 27 30 120 148 103 108 98 100 123 181 161 251 2 325 343 354 357 5 5 2 359 359 358 358 359 1 4 3 4 4 360 356 354 350 347 345 346 346 345 343 341 338 338 338 333 334 336 337 337 335
350 2 357 318 323 72 54 162 118 103 80 90 72 74 50 332 20 4 335 340 348 354 1 6 3 357 358 7 15 17 14 4 354 347 344 343 341 341 345 347 350 351 352 352 352 352 353 354 351 347 344 342 342 342
Wind_Speed_850mb
55 53 53 50 46 47 46 42 39 36 33 29 29 28 27 32 28 30 34 29 34 20 54 53 53 50 36 24 10 22 21 6 6 3 4 5 5 6 10 15 23 17 16 7 4 11 11 51 22 11 14 8 18 34
52 51 51 49 47 46 42 37 34 31 32 27 28 30 33 29 27 26 31 28 30 37 37 40 48 53 52 49 24 10 15 20 10 6 4 7 5 4 5 15 3 14 11 14 10 8 18 24 13 17 8 31 36 47
56 54 51 48 44 40 34 29 24 29 29 26 28 23 24 25 18 21 25 25 29 28 55 52 55 37 36 51 56 27 21 14 5 11 5 5 8 3 2 5 9 6 6 12 11 10 11 19 16 18 26 37 35 38
57 53 51 49 37 34 26 24 28 23 19 22 21 20 17 10 14 23 26 22 24 11 11 15 13 36 21 19 37 59 26 11 15 14 6 4 6 2 2 3 5 6 2 20 9 25 14 17 14 15 24 33 46 48
55 51 45 35 26 21 16 18 16 13 18 18 13 12 12 17 13 18 22 31 28 15 10 29 60 7 7 29 39 48 50 44 15 10 3 4 8 7 2 1 8 18 7 9 13 20 4 10 20 25 35 31 33 51
46 41 34 19 14 11 11 15 17 17 16 10 9 16 12 13 15 15 10 8 20 31 9 9 19 12 12 4 22 31 35 28 13 11 5 9 13 8 5 6 17 21 7 18 3 36 52 38 35 27 46 45 48 54
36 33 27 21 10 11 16 22 15 14 13 6 7 13 14 17 18 11 8 14 11 23 8 10 10 10 7 9 17 19 28 12 14 7 11 6 8 10 6 8 35 27 21 28 35 56 47 37 25 30 32 40 47 41
34 28 20 21 14 20 18 15 15 14 8 7 10 15 19 18 18 8 7 15 25 13 7 6 9 11 2 7 9 18 18 16 8 6 3 5 10 10 9 21 26 17 36 52 56 59 49 40 36 39 29 30 37 34
34 29 22 21 20 20 21 21 20 12 9 11 12 16 8 5 4 13 12 10 34 10 9 5 7 6 12 3 6 11 13 6 4 1 6 8 7 9 10 19 27 27 24 33 46 46 32 32 31 31 28 30 30 29
39 35 28 30 29 28 24 21 16 14 11 12 10 6 4 8 12 9 3 5 11 8 9 6 8 8 9 5 4 7 4 8 7 4 10 6 6 18 24 25 31 22 27 34 31 26 19 21 27 22 28 28 23 18
36 31 24 24 25 21 22 22 20 20 14 15 12 6 9 12 6 3 3 5 5 4 8 12 12 9 4 4 3 4 4 3 5 6 3 6 7 3 19 25 22 24 26 24 23 24 21 19 19 20 22 21 21 22
37 34 29 22 24 22 21 29 28 24 21 19 16 14 10 7 4 4 4 3 5 3 7 7 9 11 10 6 4 5 4 3 8 2 6 6 6 16 19 15 18 19 21 24 24 25 27 27 21 23 26 27 27 28
37 34 28 24 21 25 27 29 35 33 19 11 9 8 8 8 6 8 12 5 6 10 14 20 14 26 11 11 1 5 8 7 1 8 6 5 14 16 19 16 24 30 26 24 27 26 31 33 32 31 29 30 29 27
37 34 29 27 29 30 34 38 36 25 11 8 10 7 7 6 8 4 9 10 11 8 21 27 11 6 4 1 3 8 8 1 7 5 5 5 15 16 22 22 23 24 24 29 34 37 38 36 32 30 27 24 25 25
26 27 31 37 43 43 37 30 25 20 10 14 10 9 8 15 14 19 19 12 11 25 10 4 4 2 6 7 9 6 8 9 9 4 3 15 14 12 17 22 23 25 28 31 33 32 32 34 32 28 27 24 21 22
24 28 45 49 45 36 32 23 20 17 9 10 12 9 25 15 26 36 43 41 41 29 11 6 6 6 10 6 8 10 5 7 4 5 9 7 9 13 19 23 26 22 22 22 19 19 21 23 20 21 23 26 23 22
33 39 51 53 43 26 32 20 13 10 10 9 9 14 12 8 13 19 21 30 34 15 7 6 9 6 5 7 7 8 7 6 11 11 14 11 9 12 16 13 15 19 19 18 20 16 16 20 27 6 10 15 17 20
36 40 47 52 47 20 22 19 9 10 11 9 9 28 24 14 20 21 35 43 25 14 9 7 4 11 8 7 6 6 9 6 10 11 11 15 18 17 13 13 15 18 14 13 12 10 15 15 20 20 6 11 14 19
40 41 46 48 42 19 12 12 10 7 6 12 22 33 19 24 33 38 37 37 20 19 7 8 11 9 7 9 13 15 17 18 15 12 11 14 17 14 15 16 17 16 12 10 9 6 15 10 3 6 13 10 8 14
33 32 39 34 28 11 8 9 11 7 11 15 22 30 14 19 31 39 40 40 30 12 17 10 8 7 8 10 12 11 13 16 19 11 9 11 14 16 14 11 11 12 10 9 5 11 18 10 5 4 7 7 12 17
29 32 30 24 14 17 9 12 8 10 13 11 26 23 12 22 21 32 31 34 21 12 10 11 10 14 16 15 15 13 12 14 13 11 10 9 10 2 11 11 7 8 5 10 14 16 15 11 9 10 11 15 19 18
24 29 20 17 12 9 9 20 10 13 10 14 16 18 12 14 18 21 28 18 11 10 11 15 18 18 18 18 15 13 15 16 12 13 13 14 12 15 20 14 9 11 15 19 20 21 19 18 16 14 14 14 15 17
20 18 11 13 8 11 6 17 10 14 10 22 13 8 8 12 17 22 8 12 10 21 22 24 25 25 24 23 18 14 13 12 13 12 14 15 7 8 13 1 7 10 12 17 20 23 26 28 29 28 28 27 27 26
12 10 9 10 13 6 9 8 7 8 8 8 7 8 9 12 22 9 4 6 12 20 29 26 25 24 31 40 46 45 39 30 27 25 22 14 8 2 4 4 7 11 17 23 29 33 34 29 24 17 17 18 20 19
5 9 6 8 6 5 5 9 7 6 4 4 4 2 6 10 7 8 10 20 27 25 21 22 29 40 38 34 39 44 43 39 35 29 26 21 10 4 3 5 9 16 27 32 33 34 26 20 18 19 22 22 21 16
7 7 5 3 2 1 2 4 5 5 4 4 3 2 2 3 2 6 4 14 20 29 27 33 37 41 47 46 41 44 45 39 32 22 24 20 12 10 9 13 16 19 32 34 34 26 22 23 24 26 25 23 23 21
6 6 5 7 5 6 5 4 4 5 4 3 1 1 1 4 9 12 23 31 18 24 37 38 41 40 36 37 41 43 42 35 27 25 21 16 15 18 20 21 24 31 34 31 30 23 23 27 28 28 27 25 25 26
3 3 5 6 4 5 7 6 4 4 2 3 2 5 6 10 8 16 24 39 42 37 39 36 30 36 40 44 47 47 45 37 25 21 19 18 25 31 28 31 35 36 35 34 29 27 28 24 25 26 26 24 23 21
5 6 5 8 5 5 6 4 5 5 3 3 5 7 8 10 17 25 31 33 32 31 36 36 38 41 46 43 48 46 41 40 36 32 30 30 32 31 34 35 38 40 38 32 30 30 30 28 26 23 21 20 20 21
6 10 5 5 5 7 10 9 13 15 15 20 30 43 36 31 39 37 40 38 31 30 33 36 41 46 45 46 42 37 33 38 38 36 35 37 37 38 39 39 38 35 30 25 17 14 18 16 18 20 24 25 26 28
13 8 5 3 3 5 15 32 40 41 40 49 40 31 22 11 20 41 41 39 36 25 24 29 38 46 51 54 50 40 35 38 38 33 29 27 29 31 33 33 32 27 24 22 20 20 22 24 24 26 27 29 29 30
14 10 10 5 4 11 20 23 14 24 21 20 6 5 6 5 6 4 12 26 30 28 33 38 41 42 45 42 36 33 33 33 34 34 34 35 33 33 31 29 27 25 25 24 24 25 27 27 27 27 27 27 28 28
11 14 9 7 5 4 6 7 10 10 9 5 5 3 2 1 6 10 16 22 25 23 28 34 35 35 42 37 34 31 28 29 33 35 37 39 40 40 35 33 30 28 28 27 26 26 26 27 27 28 29 29 28 28
Wind_Direction_850mb
314 312 311 310 306 306 304 301 298 304 297 297 292 285 279 273 263 249 253 256 243 264 272 265 263 268 273 277 288 322 324 49 306 262 260 255 247 169 177 164 170 161 160 143 114 294 245 355 337 293 350 19 128 135
322 319 314 309 307 304 303 302 298 294 301 297 307 283 273 268 253 244 255 262 258 250 259 274 269 265 253 247 262 257 301 302 286 325 293 293 294 253 176 182 242 176 169 144 131 264 326 349 310 311 94 84 88 96
320 318 320 314 309 304 304 298 308 304 301 290 299 302 276 272 247 255 262 255 259 274 288 268 265 288 266 250 247 240 269 214 206 341 275 277 277 317 178 114 144 73 142 111 125 165 8 346 34 48 78 78 80 86
327 318 316 314 306 311 303 297 303 306 290 297 295 293 297 285 281 266 261 265 266 269 274 292 287 297 280 240 222 219 209 119 338 322 261 263 272 322 271 34 99 8 87 144 112 140 198 239 120 95 80 79 82 79
329 328 324 317 316 311 308 328 330 309 310 310 285 292 278 281 277 271 271 269 263 230 295 292 307 343 358 218 222 218 226 240 303 343 326 247 278 282 134 182 51 346 355 156 163 166 129 130 129 116 90 77 78 85
336 339 339 341 346 334 333 332 318 320 330 312 300 286 278 307 308 306 291 270 235 219 269 294 312 312 353 200 194 195 196 203 203 192 251 252 252 281 44 64 13 351 278 232 180 150 116 109 94 98 102 99 88 84
349 351 357 357 0 343 339 331 323 326 324 306 304 326 331 301 294 286 287 351 158 178 255 291 291 287 342 123 158 163 180 204 214 216 221 273 16 48 50 36 335 360 71 90 107 112 89 107 96 94 87 84 87 75
1 359 3 2 7 354 348 355 340 335 335 324 311 299 306 300 298 332 291 238 196 264 269 282 279 295 171 181 165 171 155 195 217 301 262 21 33 49 53 358 354 61 84 81 92 94 93 97 84 77 78 70 68 64
17 26 30 27 21 23 17 2 345 348 340 329 316 317 336 18 20 347 23 172 203 240 304 279 294 325 337 174 160 165 176 108 223 258 54 63 28 49 1 350 20 39 75 81 84 84 75 60 51 58 46 54 52 45
33 35 42 39 35 25 17 18 21 354 356 353 3 3 8 339 334 336 352 171 184 225 237 257 274 279 318 331 143 146 181 132 151 72 114 90 64 35 34 47 54 66 76 86 81 87 84 76 67 62 49 44 43 37
26 21 21 26 16 22 34 28 11 360 18 10 353 333 316 321 308 276 257 217 190 246 229 244 247 284 292 300 28 21 133 156 110 118 127 91 95 5 49 58 62 84 105 102 103 98 95 83 72 65 62 59 54 52
26 23 22 25 25 29 20 13 14 10 351 335 320 317 331 339 303 282 262 244 235 309 264 263 305 254 294 325 321 16 48 49 74 43 79 84 82 68 79 52 73 98 88 86 84 78 74 67 65 64 57 50 47 42
19 14 16 29 30 26 21 10 0 349 347 351 343 329 348 348 20 9 355 39 12 354 327 332 333 342 327 7 345 16 58 53 212 38 56 77 77 73 100 94 71 80 84 90 86 82 74 64 60 57 53 49 45 46
23 32 38 34 21 5 355 353 357 7 16 18 344 14 10 24 13 321 320 310 292 230 283 290 242 225 277 25 311 33 17 303 70 58 76 81 71 71 78 77 76 70 69 67 63 58 54 50 47 46 44 41 45 49
24 25 18 6 357 349 350 357 8 17 40 23 17 20 8 318 325 304 317 298 321 325 333 228 238 251 8 47 20 4 40 59 39 46 40 45 53 61 70 70 70 65 61 56 52 49 48 45 40 40 37 32 40 42
14 6 5 5 5 7 9 12 15 35 41 34 31 350 346 7 8 11 0 358 354 347 5 35 45 36 23 16 47 27 59 19 67 47 60 46 70 69 65 60 51 46 40 36 32 34 35 26 24 39 41 43 48 38
3 1 358 3 4 5 16 18 7 29 36 28 356 351 339 280 297 328 338 337 355 348 16 11 51 12 292 51 45 24 78 345 355 45 62 78 80 78 64 59 39 34 28 33 35 39 25 26 24 20 38 29 24 20
357 355 355 356 359 4 13 22 25 29 27 18 348 350 350 356 347 354 356 3 11 13 14 51 59 32 40 38 50 52 50 11 26 50 51 69 77 77 69 51 41 34 37 28 31 38 26 18 20 21 349 337 345 353
345 344 350 351 356 2 13 25 24 28 357 346 345 353 351 2 3 3 4 18 33 39 51 39 56 33 47 41 45 42 33 28 13 19 64 71 56 58 51 34 17 358 350 353 356 5 1 341 343 8 349 357 15 354
332 336 340 346 1 9 23 26 18 357 0 335 348 344 343 350 359 9 19 26 39 48 40 45 48 53 56 41 31 16 9 5 13 37 78 58 44 37 3 346 322 313 325 329 326 333 334 309 212 268 312 300 303 319
335 343 345 356 16 31 42 10 16 356 335 337 346 351 334 355 7 9 8 27 45 36 53 44 27 6 343 335 335 347 1 4 16 30 25 36 52 90 333 354 329 319 2 36 28 17 7 355 316 286 275 291 294 289
342 349 353 14 25 29 40 9 338 337 343 327 349 0 13 2 353 1 355 27 39 15 15 4 13 20 36 41 44 51 52 48 26 10 353 352 2 20 22 13 37 60 55 48 41 33 24 14 3 350 336 323 321 313
344 358 10 13 8 29 11 7 9 8 4 353 4 26 2 348 344 357 38 12 11 22 28 35 33 23 25 35 30 12 353 328 324 324 305 304 290 228 260 231 75 56 39 24 12 359 347 337 330 323 320 319 316 315
13 20 25 32 30 10 356 356 10 0 18 20 13 358 347 337 352 29 84 315 6 18 10 13 18 51 61 63 54 46 42 41 35 26 20 6 331 222 145 95 29 14 8 357 348 342 335 329 328 333 336 334 330 329
26 20 29 7 18 19 10 328 13 18 35 8 55 6 328 346 18 11 356 356 11 30 40 52 75 71 59 49 41 35 27 20 13 7 8 18 26 64 28 356 359 357 352 350 349 346 345 347 344 338 333 331 333 331
48 8 43 346 341 349 46 344 337 337 327 344 70 161 300 289 6 62 80 13 25 37 63 76 67 62 52 43 35 25 16 10 4 359 354 353 346 355 1 353 348 343 344 344 344 343 342 340 336 334 328 322 318 316
40 19 332 317 291 301 279 243 265 290 299 341 44 113 333 33 51 28 14 8 31 70 84 73 58 48 40 31 25 21 16 11 5 1 5 11 5 349 341 334 331 328 330 333 335 327 329 330 330 329 326 319 311 305
303 280 289 314 276 243 287 287 240 238 241 177 144 34 46 30 21 5 33 77 92 87 73 62 51 38 27 21 16 12 13 16 12 6 359 356 351 342 334 324 321 321 321 322 315 313 319 324 328 331 332 330 327 324
296 304 268 277 238 236 248 273 325 352 49 98 53 51 71 52 74 91 88 77 70 57 46 34 25 18 20 22 15 9 2 1 5 7 2 350 344 341 334 326 323 322 320 316 307 304 303 305 313 320 327 334 333 330
324 327 281 304 316 15 18 30 37 86 85 103 107 102 94 75 56 61 60 52 42 32 18 14 11 11 12 9 8 7 2 1 2 0 350 343 337 336 338 339 339 336 330 324 330 331 320 327 333 336 336 333 329 328
329 331 290 287 298 63 56 101 95 85 83 90 95 82 58 44 27 38 31 15 9 4 8 2 1 4 2 359 358 356 356 359 2 3 3 359 354 351 348 344 340 340 338 337 342 343 339 335 332 331 329 329 328 330
344 358 344 323 27 30 120 148 103 108 98 100 123 181 161 251 2 325 343 354 357 5 5 2 359 359 358 358 359 1 4 3 4 4 360 356 354 350 347 345 346 346 345 343 341 338 338 338 333 334 336 337 337 335
350 2 357 318 323 72 54 162 118 103 80 90 72 74 50 332 20 4 335 340 348 354 1 6 3 357 358 7 15 17 14 4 354 347 344 343 341 341 345 347 350 351 352 352 352 352 353 354 351 347 344 342 342 342